map of PAZ home
PAZ - Airport
Location
City:  Poza Rica, Veracruz, México
Name:El Tajín National
ICAO:MMPA
IATA:PAZ

Details
Type:Airport (Aerodrome, Airfield)
Use:Public/Civil
Latitude:20°36'10"N (20.602671)
Longitude:97°27'39"W (-97.460838)
Datum:other
Elevation:497 ft (151 m)
Variation:3.76°E (WMM2015v2 magnetic declination)
-0.11° annual change
Runways:1
Longest:5906 × 148 ft (1800 × 45 m), paved

Time
Time Zone:UTC-6 (DST-5)
Local Time:

Weather
METAR:MMPA 041345Z 00000KT 2SM BR HZ FEW008 OVC010 21/20 A2990 RMK 8/8//
TAF:MMPA 040509Z 0406/0506 12005KT 5SM HZ SCT015
FM041000 00000KT 2SM BR BKN010
TEMPO 0411/0415 1/2SM FG VV003
FM041600 00000KT 3SM BR BKN015
FM041800 13010KT 6SM HZ SCT020
FM050400 13050KT 5SM HZ SCT015

Related Locations
Nearby:
Farthest:CCK: 11333 mi / 18239 km
West Island (Pulau Panjang) [Cocos (Keeling) Islands], CC

Find:

   beyond  
but within

Other Information
Maps:
NOTAMs:
Links:
Sources:

  
  • flag of México
  • flag of Veracruz
  

Sectional Chart

Flight Planning
at skyvector.com

Satellite Image

Google Maps Satellite view

 

Copyright © 2004-2019 Karl L. Swartz. All rights reserved.
The Great Circle Mapper name and logo are trademarks of the Great Circle Mapper.
All other trademarks mentioned herein belong to their respective owners.
Please see credits for attibutions and further copyright information.

  Follow gcmap on Facebook Follow gcmap on Twitter GCmap on LinkedIn

hCard Microformat

Geo Microformat